Reflectivity
-20 -2 5 11 -9 2 -8 -2 6 -20 -20 -20 -20 -20 -20 -20 -20 -20 -20 -20 -20 -20 -20 -20 -20 -20 -20 -20 -20 -20 -20 -20
-9 7 0 -2 30 16 -0 1 -9 -20 -20 -20 -20 -20 -20 -20 -20 -20 -20 -20 -20 -20 -20 -20 -20 -20 -20 -20 -20 -20 -20 -9
13 14 -0 15 38 32 4 6 -18 -20 -20 -20 -20 -20 -20 -20 -20 -20 -20 -20 -20 -20 -20 -20 -20 -20 -20 -20 -20 -20 -20 -20
7 -20 -20 4 21 26 6 -9 -20 -20 -20 -20 -20 -20 -20 -20 -20 -20 -20 -20 -20 -20 -20 -20 -20 -20 -20 -20 -20 -20 -20 -20
2 -8 18 -20 -1 6 8 -3 -20 -20 -20 -20 -20 -20 -20 -20 -20 -20 -20 -20 -20 -20 -20 -20 -20 -20 -20 -20 -20 -20 -20 -20
-7 -20 1 -9 6 -1 4 -11 -20 -20 -20 -20 -20 -20 -20 -20 -20 -20 -20 -20 -20 -20 -20 -20 -20 -20 -20 -20 -20 -20 -20 -20
7 3 26 5 17 31 -17 -20 -20 -20 -20 -20 -20 -20 -20 -20 -20 -20 -20 -20 -20 -20 -20 -20 -20 -20 -20 -20 -20 -20 -20 -20
8 -6 -17 12 6 21 -20 -20 -20 -20 -20 -20 -20 -20 -20 -20 -20 -20 -20 -20 -20 -20 -20 -20 -20 -20 -20 -20 -20 -20 -20 -20
2 -19 -20 5 -2 -19 -20 -20 -20 -20 -20 -20 -20 -20 -20 -20 -20 -20 -20 -20 -20 -20 -20 -20 -20 -20 -20 -20 -20 -20 -20 -20
-11 -15 -16 -8 3 -20 -20 -20 -20 -20 -20 -20 -20 -20 -20 -20 -20 -20 -20 -20 -20 -20 -20 -20 -20 -20 -20 -20 -20 -20 -20 -20
-6 -20 -20 -20 9 26 10 -17 16 -20 -20 -20 -20 -20 -20 -20 -20 -20 -20 -20 -20 -20 -20 -20 -20 -20 -20 -20 -20 -20 -20 -20
-20 -10 34 12 30 -10 30 -16 -12 13 -20 -20 -20 -20 -20 -20 -20 -20 -20 -20 -20 -20 -20 -20 -20 -20 -20 -20 -20 -20 -20 -20
-20 -20 -20 24 -20 -20 -20 -19 -20 -20 -20 -20 -20 -20 -20 -20 -20 -20 -20 -20 -20 -20 -20 -20 -20 -20 -20 -20 -20 -20 -20 -20
-20 -20 -20 -9 -20 -20 -20 -20 -14 -20 10 -20 -20 -20 -20 -20 -20 -20 -20 -20 -20 -20 -20 -20 -20 -20 -20 -20 -20 -20 -20 -20
-20 -20 -20 -20 -20 -20 -18 -20 6 -20 -0 -20 -20 -20 -20 -20 -20 -20 -20 -20 -20 -20 -20 -20 -20 -20 -20 -20 -20 -20 -20 -20
-20 -20 -6 -18 -20 -20 -7 -20 30 -20 -20 -20 -20 -20 -20 -20 -20 -20 -20 -20 -20 -20 -20 -20 -20 -20 -20 -20 -20 -20 -20 -20
-1 -20 -19 -20 -20 -20 -20 -20 30 -20 -20 -20 -20 -20 -20 -20 -20 -20 -20 -20 -20 -20 -20 -20 -20 -20 -20 -20 -20 -20 -20 -20
-19 -8 -20 -18 -0 1 -19 -5 -3 -20 -20 -20 -20 -20 -20 -20 -20 -20 -20 -20 -20 -20 -20 -20 -20 -20 -20 -20 -20 -20 -20 -20
-20 -20 -20 -20 -20 -17 -10 5 -20 -20 -20 -20 -20 4 -20 -20 -20 -20 -20 -20 -20 -20 -20 -20 -20 -20 -20 -20 -20 -20 -20 -20
Wind_Speed
20 21 16 16 13 13 16 15 15 13 10 8 7 6 5 4 4 5 6 6 6 5 6 8 8 8 9 9 10 9 9 9
19 18 14 14 11 15 17 17 16 11 10 10 8 7 6 5 5 6 6 6 6 6 7 9 9 9 10 12 12 13 10 10
18 18 17 19 19 15 18 18 17 13 10 8 7 7 6 5 5 6 6 6 6 5 7 8 9 9 12 12 13 11 10 9
17 17 19 21 19 21 18 19 17 14 13 9 9 7 7 6 7 6 5 6 6 6 5 6 8 9 10 12 12 14 9 8
16 19 16 18 20 19 21 19 19 15 14 12 13 8 9 6 7 6 6 6 6 6 7 8 9 8 10 10 9 9 9 8
20 19 18 16 19 19 17 18 18 16 14 12 10 9 7 8 7 9 7 6 6 6 6 6 7 6 9 10 11 9 7 5
21 17 18 15 15 15 20 20 18 17 14 13 12 12 12 10 10 7 6 5 5 5 6 6 5 5 7 7 9 9 7 5
21 20 18 18 18 18 18 21 19 17 16 14 12 12 12 12 12 8 9 7 6 6 7 6 6 5 6 6 7 7 7 6
21 18 17 17 17 18 18 20 19 18 16 15 13 13 9 9 9 8 7 7 7 8 7 7 7 7 7 7 5 5 6 5
23 19 16 19 18 20 18 19 18 18 17 14 13 12 12 10 11 10 8 8 8 9 9 9 9 8 8 8 6 8 9 7
20 19 21 20 19 18 15 17 18 18 17 14 13 13 12 11 11 11 10 9 10 11 10 10 10 9 9 8 8 8 9 7
25 22 22 21 17 19 17 15 20 18 17 16 15 13 12 12 11 12 11 11 12 11 11 11 11 10 9 8 8 8 9 9
24 23 22 20 21 18 18 17 19 18 18 16 15 14 14 13 12 13 13 12 12 12 11 11 11 11 9 10 9 9 9 10
21 21 20 21 21 18 18 20 20 18 18 17 16 15 15 14 14 14 13 13 13 12 11 11 11 11 11 10 9 9 8 9
22 22 20 20 19 19 19 22 21 20 20 18 17 17 16 14 14 15 14 14 13 13 11 11 11 11 11 11 10 10 9 8
19 20 18 18 18 18 19 20 18 20 20 19 18 16 15 16 15 15 14 14 13 13 12 11 11 11 9 12 11 10 10 9
15 16 19 18 17 16 17 19 20 20 20 19 18 17 17 16 16 16 15 14 14 14 13 13 12 9 12 9 11 10 10 10
15 15 16 17 16 15 17 19 19 21 19 19 19 18 18 17 17 17 16 16 15 14 14 13 13 11 14 11 8 10 10 9
4 10 13 15 16 16 17 19 19 19 19 19 18 18 18 17 17 17 16 15 15 14 14 14 13 10 15 13 11 10 9 10
Wind_Direction
184 185 173 169 153 164 164 167 151 154 149 142 131 127 125 131 127 112 141 130 138 158 142 150 161 147 145 139 129 131 125 120
182 174 160 145 148 169 171 164 161 157 159 158 152 145 133 130 122 128 136 130 140 159 150 162 165 160 148 145 137 138 122 125
171 159 154 162 161 175 177 171 166 171 168 161 151 142 134 131 135 127 126 135 137 157 160 168 173 149 147 145 146 143 143 164
160 164 166 174 177 174 180 174 171 177 162 143 136 128 137 152 149 143 123 130 133 131 150 159 161 159 156 157 164 154 159 174
164 162 170 176 174 178 180 170 176 171 168 158 161 160 160 153 149 129 128 123 127 138 145 155 168 170 161 169 171 179 164 173
168 170 171 176 177 174 175 172 173 167 177 165 169 160 134 148 139 143 124 125 127 133 145 148 168 184 173 176 175 193 188 188
171 170 167 172 171 174 168 173 174 170 168 170 172 155 157 154 151 149 152 141 138 129 137 144 144 158 172 181 190 193 201 211
171 170 168 167 162 168 172 173 172 174 169 174 163 165 166 162 156 159 157 149 155 147 140 140 139 145 145 164 187 179 187 201
178 172 165 164 161 170 173 174 173 173 172 170 168 165 164 160 167 151 160 159 151 149 135 128 128 135 132 131 138 140 136 140
180 166 165 169 171 177 175 176 174 173 171 168 171 170 165 161 154 152 155 150 142 146 139 134 128 124 123 126 123 120 118 120
180 175 174 178 178 179 177 178 175 175 171 173 171 169 169 158 154 154 159 151 148 148 147 140 133 128 122 118 119 121 121 120
181 179 188 182 174 171 174 178 177 175 176 175 171 170 168 162 158 154 160 158 157 155 155 149 140 133 131 127 126 133 126 120
180 181 179 170 172 173 174 175 181 180 178 175 173 169 171 169 161 161 164 164 163 156 159 153 144 142 142 142 147 139 137 132
176 172 180 175 177 172 173 184 183 180 182 174 175 176 175 171 164 165 172 164 164 160 164 160 154 151 149 152 145 143 140 136
178 174 182 183 178 172 178 189 184 179 183 180 177 181 177 171 167 169 173 170 164 164 170 164 158 159 155 154 150 146 143 139
184 179 179 184 178 176 189 189 186 179 182 181 181 178 178 172 169 171 173 173 168 168 169 168 166 168 165 162 156 156 153 149
185 184 179 186 183 181 182 188 185 179 183 184 179 178 179 176 172 172 173 173 170 171 174 175 173 180 132 159 164 163 164 162
181 192 194 182 187 182 184 189 185 185 185 185 179 181 180 178 173 174 176 174 171 176 177 179 181 178 152 164 179 167 172 172
16 190 193 189 186 181 185 190 187 187 189 185 181 181 180 178 175 178 176 174 177 178 180 184 184 176 161 168 182 173 180 179